Location: Ay?beleni
(36.6500°N, 30.3000°E)
Time: 08:34:12
(UTC+00:00)

Cosmos 1697 Rocket - Pass Details

Date: 09 April 2020
Orbit: 831 x 845 km, 71.0° (Epoch: 31 May)

Event Time Altitude Azimuth Distance (km) Brightness Sun altitude
Rises 19:27:05 0° 344° (NNW) 3,408 6.6 -32.7°
Reaches altitude 10° 19:29:38 10° 350° (N) 2,470 5.7 -33.1°
Enters shadow 19:32:49 31° 11° (NNE) 1,449 4.1 -33.6°
